Regional Weather Roundup
Issued by NWS

Home | Current Version | Previous Version | Text Only | Print | Product List | Glossary On
Versions: 1 2 3 4 5 6 7 8 9 10 11 12 13 14 15 16 17 18 19 20 21 22 23 24 25 26 27 28 29 30 31 32 33 34 35 36 37 38 39 40 41 42 43 44 45 46 47 48 49 50
175
ASUS43 KTOP 260508
RWRKS

WEATHER ROUNDUP FOR KANSAS
NATIONAL WEATHER SERVICE GOODLAND KS
1200 AM CDT TUE SEP 26 2017

NOTE:  "FAIR" INDICATES FEW OR NO CLOUDS BELOW 12,000 FEET WITH NO
SIGNIFICANT WEATHER AND/OR OBSTRUCTIONS TO VISIBILITY.

KSZ001>006-013>018-027>032-041>047-260600-
NORTHWEST KANSAS

CITY           SKY/WX    TMP DP  RH WIND       PRES   REMARKS
GOODLAND       CLOUDY    48  47  96 N7        30.13S
HAYS           CLOUDY    53  51  93 N15       30.05R
HILL CITY      CLOUDY    52  51  97 N10       30.08S
RUSSELL        CLOUDY    54  53  97 N16       30.03R
$$

KSZ061>065-074>080-084>089-260600-
SOUTHWEST KANSAS

CITY           SKY/WX    TMP DP  RH WIND       PRES   REMARKS
DODGE CITY     CLOUDY    54  53  97 N12       30.06S FOG
ELKHART          N/A     51  52 100 N9          N/A
GREAT BEND     LGT RAIN  55  55 100 N12       30.04R
LIBERAL        LGT RAIN  54  53  97 N14       30.08R FOG
PRATT          CLOUDY    57  55  95 NW15      30.02S FOG
$$

KSZ066>073-081>083-090>101-260600-
SOUTHEAST KANSAS

CITY           SKY/WX    TMP DP  RH WIND       PRES   REMARKS
CHANUTE        LGT RAIN  69  65  86 N3        29.95S
COFFEYVILLE    CLOUDY    70  67  90 NE5       29.93S
HUTCHINSON     CLOUDY    63  63 100 NW8       29.97R
MEDICINE LODGE   N/A     63  62  97 N3        29.98S
NEWTON         CLOUDY    62  61  96 E3        29.96F
PARSONS        CLOUDY    70  65  84 NE3       29.94S
WICHITA INTL   CLOUDY    65  63  93 N3        29.94S
WICHITA JABRA  CLOUDY    63  63 100 E6        29.95S
WICHITA MCCONL MOCLDY    64  61  88 E8        29.94S
WINFIELD       CLOUDY    66  66 100 E3        29.95F
$$

KSZ007>012-019>026-033>040-048>060-102>105-260600-
NORTHEAST KANSAS

CITY           SKY/WX    TMP DP  RH WIND       PRES   REMARKS
CONCORDIA      LGT RAIN  57  57 100 NW12      30.00R
EMPORIA        LGT RAIN  65  64  97 NE3       29.94F
LAWRENCE       CLOUDY    67  65  93 CALM      29.94F
MANHATTAN      MOCLDY    65  65 100 CALM      29.94F
MARYSVILLE     LGT RAIN  63  61  94 CALM      29.96R
OLATHE IND     CLOUDY    66  63  90 N7        29.95F
OLATHE EXE     MOCLDY    68  63  84 N7        29.94F
SALINA         CLOUDY    63  61  93 NW17      29.98R FOG
TOPEKA BILLARD LGT RAIN  67  67 100 CALM      29.94S
TOPEKA FORBES  LGT RAIN  68  66  93 CALM      29.94F
$$




USA.gov is the U.S. government's official web portal to all federal, state and local government web resources and services.